896  
AXUS43 KLBF 241510  
MISLBF  
 
WESTERN AND NORTH CENTRAL NEBRASKA HOURLY WEATHER ROUNDUP  
NATIONAL WEATHER SERVICE NORTH PLATTE NE  
1000 AM CDT SUN MAR 24 2019  
 
NOTE: "FAIR" INDICATES FEW OR NO CLOUDS BELOW 12,000 FEET WITH NO  
SIGNIFICANT WEATHER AND/OR OBSTRUCTIONS TO VISIBILITY.  
 
NOTE: STATIONS NOT REPORTING SKY/WEATHER AND PRESSURE ARE  
PROVIDED BY RAWS AND APRS NETWORKS AND ARE NOT UNDER NATIONAL  
WEATHER SERVICE QUALITY CONTROL.  
   
..OBSERVATIONS IN AND NEAR THE EASTERN PANHANDLE OF NEBRASKA
 
 
 
CITY SKY/WX TMP DP RH WIND PRES REMARKS  
PINE RIDGE CLOUDY 38 35 89 E3 30.10R FOG  
GORDON FOG 37 36 97 CALM 30.09R VSB 1/4  
CHADRON CLOUDY 37 36 96 N3 30.09R FOG  
ALLIANCE CLOUDY 34 34 100 SE3 30.08R  
SIDNEY CLOUDY 41 39 93 CALM 30.08R  
CRESCENT LAKE N/A 37 37 100 CALM N/A  

 
   
..OBSERVATIONS IN NORTHERN NEBRASKA AND FAR SOUTHERN SOUTH DAKOTA
 
 
 
CITY SKY/WX TMP DP RH WIND PRES REMARKS  
WINNER CLOUDY 38 35 89 W7 30.12R FOG  
VALENTINE CLOUDY 37 34 89 NW3 30.11R FOG  
AINSWORTH CLOUDY 36 36 100 N9 30.10R FOG  
O'NEILL PTSUNNY 40 39 95 N9 30.07R  
THEDFORD CLOUDY 41 39 93 N7 30.08R  
BROKEN BOW CLOUDY 42 39 89 N15 30.05R  
ORD CLOUDY 42 40 92 NW8 30.04R FOG  
ALBION CLOUDY 42 41 95 N10 30.03R FOG  
EWING N/A 42 41 95 N3 N/A  
BUTTE N/A 39 37 93 NE8 N/A  
SPRINGVIEW N/A 38 35 90 CALM N/A  
VALENTINE NWR N/A 37 37 100 N6 N/A  
HALSEY N/A 39 38 97 N5 N/A  

 
   
..OBSERVATIONS IN SOUTHWEST NEBRASKA AND FAR NORTHEAST COLORADO
 
 
 
CITY SKY/WX TMP DP RH WIND PRES REMARKS  
WRAY CLOUDY 41 41 100 CALM 30.10  
HOLYOKE FOG 41 37 87 NW6 30.10 VSB 3/4  
IMPERIAL CLOUDY 43 38 82 NW7 30.08R  
OGALLALA CLOUDY 42 41 94 NW5 30.09R  
NORTH PLATTE CLOUDY 46 39 76 NE7 30.07R  
MCCOOK CLOUDY 44 40 85 NW7 30.08R  
LEXINGTON CLOUDY 43 39 86 N9 30.06R  
CALLAWAY N/A 41 40 95 E10 N/A  
STAPLETON N/A 41 38 89 N3G12 N/A  

 
   
..OBSERVATIONS IN CENTRAL LINCOLN COUNTY AREA
 
 
 
CITY SKY/WX TMP DP RH WIND PRES REMARKS  
N.P. AIRPORT CLOUDY 46 39 76 NE7 30.07R  
N.P. HILLCREST N/A 44 40 87 NE10 N/A  
N.P. DOWNTOWN N/A 44 41 88 NE5 N/A  
N.P. SOUTHEAST N/A 44 40 87 N3 N/A  

 
   
..OBSERVATIONS ACROSS THE ROCKIES AND WESTERN HIGH PLAINS
 
 
 
CITY SKY/WX TMP DP RH WIND PRES REMARKS  
SCOTTSBLUFF LGT RAIN 40 40 100 CALM 30.07R VSB 1/2  
KIMBALL PTSUNNY 40 38 93 NW3 30.07R  
CHEYENNE MOSUNNY 41 28 60 W6 30.08R  
DENVER MOSUNNY 41 27 57 CALM 30.09R  
STEAMBOAT PTSUNNY 28 22 79 CALM 30.11  
COPPER MTN FLURRIES 25 18 74 MISG 30.15S  
LEADVILLE CLOUDY 24 16 71 S7 30.12R WCI 16  
ASPEN MOSUNNY 32 22 66 CALM 30.11R  
GUNNISON FLURRIES 25 21 85 E6 30.18R WCI 18  
TELLURIDE PTSUNNY 32 27 80 E3 30.16  
LARAMIE SUNNY 31 24 75 CALM 30.09R  
CASPER MOSUNNY 39 31 72 E3 30.07R  
SHERIDAN PTSUNNY 41 33 73 CALM 30.07R  
YELLOWSTONE N/A 23 20 88 CALM 30.09R  

 
   
..OBSERVATIONS ACROSS THE NORTHERN PLAINS
 
 
 
CITY SKY/WX TMP DP RH WIND PRES REMARKS  
RAPID CITY FOG 39 37 92 CALM 30.10R VSB 3/4  
PIERRE CLOUDY 38 37 97 N5 30.13R  
SIOUX FALLS CLOUDY 43 37 79 N10 30.08R  
ABERDEEN CLOUDY 32 31 96 NE20 30.17R FOG  
WILLISTON CLOUDY 28 24 85 E12 30.26R WCI 18  
DICKINSON FOG 32 31 96 E13 30.16R VSB<1/4  
BISMARCK CLOUDY 31 28 89 NE14 30.24R  
FARGO CLOUDY 30 27 88 N15 30.20S WCI 19  

 
   
..OBSERVATIONS ACROSS THE CENTRAL AND SOUTHERN PLAINS
 
 
 
CITY SKY/WX TMP DP RH WIND PRES REMARKS  
OMAHA CLOUDY 48 45 89 N8 29.96R FOG  
GRAND ISLAND CLOUDY 43 41 93 N14 30.02R FOG  
KANSAS CITY MOSUNNY 53 50 89 SW9 29.94F  
WICHITA MOSUNNY 51 42 71 N16 30.01R  
DODGE CITY SUNNY 49 39 68 NW15 30.07R  
OKLAHOMA CITY FOG 54 54 100 N10 30.01R VSB 3/4  
DALLAS PTSUNNY 69 62 78 S9 30.05R  
AMARILLO SUNNY 46 37 71 N12 30.09R  

 
 
 
CLICK HERE TO GO TO PREVIOUS BULLETINS.

The Nexlab NE Page Main Text Page